| time (UTC) | temp F | wind direction | speed MPH | gust MPH | rain 1hr in | rain 24hr in | rain mn in | humidity % | barometer mb |
| 20260506044608 | 52 | 182 | 0.0 | 0.0 | 0.00 | 0.18 | 0.04 | 46 | 1017.9 |
| 20260506043056 | 52 | 182 | 0.0 | 0.0 | 0.00 | 0.18 | 0.04 | 48 | 1017.8 |
| 20260506041606 | 52 | 175 | 0.0 | 0.0 | 0.00 | 0.18 | 0.04 | 48 | 1017.5 |
| 20260506040055 | 52 | 205 | 0.0 | 0.0 | 0.00 | 0.18 | 0.04 | 49 | 1017.2 |
| 20260506034549 | 52 | 190 | 0.0 | 0.0 | 0.00 | 0.22 | 0.04 | 51 | 1017.0 |
| 20260506033052 | 52 | 252 | 0.0 | 0.0 | 0.00 | 0.22 | 0.04 | 53 | 1016.9 |
| 20260506031548 | 53 | 192 | 0.0 | 0.0 | 0.00 | 0.22 | 0.04 | 52 | 1016.6 |
| 20260506030047 | 53 | 207 | 0.0 | 0.0 | 0.00 | 0.22 | 0.04 | 53 | 1016.4 |
| 20260506024546 | 53 | 232 | 0.0 | 0.0 | 0.00 | 0.31 | 0.04 | 55 | 1016.1 |
| 20260506023053 | 54 | 290 | 0.0 | 0.0 | 0.00 | 0.31 | 0.04 | 55 | 1016.1 |
| 20260506021546 | 54 | 162 | 0.0 | 0.0 | 0.00 | 0.31 | 0.04 | 56 | 1016.0 |
| 20260506020114 | 55 | 192 | 0.0 | 0.0 | 0.00 | 0.31 | 0.04 | 56 | 1015.8 |
| 20260506014544 | 55 | 198 | 0.0 | 0.0 | 0.00 | 0.39 | 0.04 | 59 | 1015.8 |
| 20260506013043 | 55 | 194 | 0.0 | 0.0 | 0.00 | 0.39 | 0.04 | 59 | 1015.6 |
| 20260506011547 | 56 | 207 | 0.0 | 0.0 | 0.00 | 0.39 | 0.04 | 62 | 1015.6 |
| 20260506010041 | 56 | 205 | 0.0 | 0.0 | 0.00 | 0.39 | 0.04 | 62 | 1015.5 |
| 20260506004544 | 57 | 257 | 0.0 | 0.0 | 0.00 | 0.44 | 0.04 | 65 | 1015.6 |
| 20260506003040 | 57 | 200 | 0.0 | 0.0 | 0.00 | 0.44 | 0.04 | 66 | 1015.6 |
| 20260506001547 | 57 | 259 | 0.0 | 0.0 | 0.00 | 0.44 | 0.04 | 68 | 1015.5 |
| 20260506000054 | 58 | 205 | 0.0 | 0.0 | 0.00 | 0.44 | 0.04 | 67 | 1015.5 |
| 20260505234542 | 59 | 236 | 0.0 | 0.0 | 0.00 | 0.47 | 0.04 | 67 | 1015.4 |
| 20260505233040 | 59 | 201 | 0.0 | 0.0 | 0.00 | 0.47 | 0.04 | 68 | 1015.5 |
| 20260505231538 | 59 | 263 | 0.0 | 0.0 | 0.00 | 0.47 | 0.04 | 69 | 1015.6 |
| 20260505230044 | 59 | 238 | 0.0 | 0.0 | 0.00 | 0.47 | 0.04 | 65 | 1015.6 |
| 20260505224544 | 59 | 244 | 0.0 | 0.0 | 0.00 | 0.53 | 0.04 | 68 | 1015.7 |
| 20260505223039 | 59 | 244 | 0.0 | 0.0 | 0.00 | 0.53 | 0.04 | 69 | 1015.8 |
| 20260505221544 | 61 | 193 | 0.0 | 0.0 | 0.00 | 0.53 | 0.04 | 65 | 1016.0 |
| 20260505220030 | 59 | 246 | 0.0 | 0.0 | 0.00 | 0.53 | 0.04 | 59 | 1016.1 |
| 20260505214528 | 58 | 188 | 0.0 | 0.0 | 0.00 | 0.55 | 0.04 | 53 | 1016.3 |
| 20260505213028 | 58 | 213 | 0.0 | 0.0 | 0.00 | 0.55 | 0.04 | 52 | 1016.5 |
| 20260505211530 | 58 | 200 | 0.0 | 0.0 | 0.00 | 0.55 | 0.04 | 44 | 1016.6 |
| 20260505210019 | 57 | 258 | 0.0 | 0.0 | 0.00 | 0.55 | 0.04 | 17 | 1016.6 |
| 20260505204517 | 56 | 244 | 0.0 | 0.0 | 0.00 | 0.55 | 0.04 | 17 | 1016.7 |
| 20260505203017 | 56 | 269 | 0.0 | 0.0 | 0.00 | 0.55 | 0.04 | 22 | 1016.6 |
| 20260505201512 | 55 | 182 | 0.0 | 0.0 | 0.00 | 0.55 | 0.04 | 25 | 1016.7 |
| 20260505200012 | 55 | 167 | 0.0 | 0.0 | 0.00 | 0.55 | 0.04 | 26 | 1016.7 |
| 20260505194510 | 55 | 190 | 0.0 | 0.0 | 0.00 | 0.55 | 0.04 | 26 | 1016.7 |
| 20260505193010 | 54 | 242 | 0.0 | 0.0 | 0.00 | 0.55 | 0.04 | 27 | 1016.8 |
| 20260505191512 | 55 | 85 | 0.0 | 0.0 | 0.00 | 0.55 | 0.04 | 27 | 1016.7 |
| 20260505190005 | 54 | 85 | 0.0 | 0.0 | 0.00 | 0.55 | 0.04 | 28 | 1016.6 |
| 20260505184503 | 53 | 85 | 0.0 | 0.0 | 0.00 | 0.55 | 0.04 | 28 | 1016.6 |
| 20260505183002 | 53 | 117 | 0.0 | 0.0 | 0.00 | 0.55 | 0.04 | 28 | 1016.6 |
| 20260505181641 | 53 | 117 | 0.0 | 0.0 | 0.00 | 0.55 | 0.04 | 28 | 1016.6 |
| 20260505180105 | 52 | 121 | 0.0 | 0.0 | 0.00 | 0.55 | 0.04 | 29 | 1016.5 |
| 20260505174554 | 51 | 216 | 0.0 | 0.0 | 0.00 | 0.55 | 0.04 | 30 | 1016.5 |
| 20260505173053 | 51 | 216 | 0.0 | 0.0 | 0.00 | 0.55 | 0.04 | 29 | 1016.3 |
| 20260505171558 | 50 | 216 | 0.0 | 0.0 | 0.00 | 0.55 | 0.04 | 30 | 1016.1 |
| 20260505170048 | 49 | 216 | 0.0 | 0.0 | 0.00 | 0.55 | 0.04 | 31 | 1016.2 |
| 20260505164548 | 49 | 216 | 0.0 | 0.0 | 0.00 | 0.55 | 0.04 | 30 | 1016.2 |
| 20260505163047 | 49 | 216 | 0.0 | 0.0 | 0.00 | 0.55 | 0.04 | 31 | 1016.1 |
| 20260505161547 | 49 | 216 | 0.0 | 0.0 | 0.00 | 0.55 | 0.04 | 30 | 1015.9 |
| 20260505153046 | 48 | 234 | 0.0 | 0.0 | 0.00 | 0.55 | 0.04 | 31 | 1015.5 |
| 20260505151537 | 48 | 234 | 0.0 | 0.0 | 0.00 | 0.55 | 0.04 | 31 | 1015.4 |
| 20260505124531 | 47 | 203 | 0.0 | 0.0 | 0.00 | 0.55 | 0.04 | 31 | 1014.6 |
| 20260505123045 | 47 | 257 | 0.0 | 0.0 | 0.00 | 0.55 | 0.04 | 31 | 1014.4 |
| 20260505121530 | 47 | 257 | 0.0 | 0.0 | 0.00 | 0.55 | 0.04 | 30 | 1014.5 |
| 20260505120037 | 47 | 257 | 0.0 | 0.0 | 0.00 | 0.55 | 0.04 | 30 | 1014.4 |
| 20260505114531 | 47 | 234 | 0.0 | 0.0 | 0.00 | 0.55 | 0.04 | 30 | 1014.5 |
| 20260505113029 | 47 | 234 | 0.0 | 0.0 | 0.00 | 0.55 | 0.04 | 30 | 1014.5 |
| 20260505111534 | 47 | 261 | 0.0 | 0.0 | 0.00 | 0.55 | 0.04 | 30 | 1014.5 |
| 20260505101525 | 47 | 258 | 0.0 | 0.0 | 0.00 | 0.55 | 0.04 | 30 | 1014.6 |
| 20260505100024 | 48 | 240 | 0.0 | 0.0 | 0.00 | 0.55 | 0.04 | 29 | 1014.5 |
| 20260505094522 | 48 | 198 | 0.0 | 0.0 | 0.00 | 0.55 | 0.04 | 29 | 1015.0 |
| 20260505093022 | 48 | 193 | 0.0 | 0.0 | 0.00 | 0.55 | 0.04 | 29 | 1014.6 |
| 20260505091520 | 48 | 286 | 0.0 | 0.0 | 0.01 | 0.55 | 0.04 | 29 | 1014.6 |
| 20260505090021 | 48 | 225 | 0.0 | 0.0 | 0.01 | 0.55 | 0.04 | 29 | 1014.3 |
| 20260505084515 | 48 | 242 | 0.0 | 0.0 | 0.01 | 0.55 | 0.04 | 28 | 1014.8 |
| 20260505083014 | 48 | 215 | 0.0 | 0.0 | 0.01 | 0.55 | 0.04 | 28 | 1015.1 |
| 20260505081519 | 48 | 199 | 0.0 | 0.0 | 0.01 | 0.54 | 0.03 | 28 | 1015.1 |
| 20260505080016 | 48 | 163 | 0.0 | 0.0 | 0.03 | 0.54 | 0.03 | 28 | 1015.2 |
| 20260505074511 | 48 | 212 | 0.0 | 0.0 | 0.04 | 0.54 | 0.03 | 28 | 1015.3 |
| 20260505073011 | 48 | 250 | 0.0 | 0.0 | 0.06 | 0.54 | 0.03 | 28 | 1015.4 |
| 20260505071509 | 48 | 165 | 0.0 | 0.0 | 0.07 | 0.53 | 0.02 | 28 | 1015.3 |
| 20260505070009 | 48 | 151 | 0.0 | 0.0 | 0.08 | 0.51 | 0.00 | 28 | 1015.3 |
| 20260505064505 | 48 | 171 | 0.0 | 0.0 | 0.10 | 0.50 | 0.50 | 28 | 1015.1 |
| 20260505063007 | 48 | 211 | 0.0 | 0.0 | 0.09 | 0.48 | 0.48 | 27 | 1015.2 |
| 20260505061505 | 48 | 259 | 0.0 | 0.0 | 0.06 | 0.45 | 0.45 | 27 | 1015.5 |
| 20260505060004 | 49 | 269 | 0.0 | 0.0 | 0.04 | 0.43 | 0.43 | 27 | 1015.4 |